When you browse on this site, cookies collect data to enhance your experience and personalize the content and advertising you see.
Visit our Privacy Policy to learn more. By continuing to use the site, you agree to this use of cookies and data.
  • In Romania
  • List of Countries
  • For 7 days
  • Water Temperature
  • Weather Map
  • Weather Widgets
  • user-avatar
    Login

    Hourly Weather Kerns

    Today, 19 February, Wednesday

    Time Temperature Precipitation Wind Pressure Humidity
    00:00 +27°C° 0.3 mm 2 mps 754 mmHg 93%
    01:00 +27°C° 0.3 mm 2 mps 754 mmHg 93%
    02:00 +27°C° 0.7 mm 2 mps 753 mmHg 93%
    03:00 +27°C° 0.7 mm 2 mps 753 mmHg 93%
    04:00 +27°C° 0 mm 2 mps 753 mmHg 92%
    05:00 +27°C° 0.7 mm 2 mps 754 mmHg 91%
    06:00 +27°C° 0.7 mm 1 mps 754 mmHg 90%
    07:00 +27°C° 0.7 mm 1 mps 755 mmHg 88%
    08:00 +29°C° 0.1 mm 1 mps 755 mmHg 81%
    09:00 +32°C° 0.1 mm 1 mps 755 mmHg 73%
    10:00 +34°C° 0.1 mm 1 mps 755 mmHg 66%
    11:00 +35°C° 0.1 mm 2 mps 754 mmHg 64%
    12:00 +36°C° 0.1 mm 3 mps 754 mmHg 63%
    13:00 +36°C° 0.1 mm 4 mps 753 mmHg 61%
    14:00 +35°C° 0.3 mm 3 mps 753 mmHg 64%
    15:00 +35°C° 0.3 mm 3 mps 752 mmHg 67%
    16:00 +34°C° 0.3 mm 3 mps 752 mmHg 70%
    17:00 +33°C° 0.2 mm 3 mps 752 mmHg 76%
    18:00 +30°C° 0.2 mm 3 mps 753 mmHg 82%
    19:00 +29°C° 0.2 mm 2 mps 753 mmHg 88%
    20:00 +29°C° 0 mm 2 mps 754 mmHg 90%
    21:00 +28°C° 0 mm 2 mps 754 mmHg 91%
    22:00 +28°C° 0 mm 2 mps 754 mmHg 93%
    23:00 +28°C° 0 mm 2 mps 754 mmHg 94%

    Tomorrow, 20 February, Thursday

    Time Temperature Precipitation Wind Pressure Humidity
    00:00 +27°C° 0 mm 1 mps 754 mmHg 94%
    01:00 +27°C° 0 mm 1 mps 754 mmHg 95%
    02:00 +27°C° 0 mm 1 mps 754 mmHg 95%
    03:00 +27°C° 0 mm 1 mps 753 mmHg 94%
    04:00 +27°C° 0 mm 1 mps 753 mmHg 94%
    05:00 +27°C° 0 mm 1 mps 754 mmHg 92%
    06:00 +27°C° 0 mm 1 mps 754 mmHg 90%
    07:00 +28°C° 0 mm 1 mps 755 mmHg 88%
    08:00 +30°C° 0 mm 1 mps 755 mmHg 78%
    09:00 +33°C° 0 mm 1 mps 755 mmHg 68%
    10:00 +35°C° 0 mm 1 mps 755 mmHg 59%
    11:00 +37°C° 0 mm 2 mps 755 mmHg 57%
    12:00 +37°C° 0 mm 2 mps 754 mmHg 55%
    13:00 +38°C° 0 mm 2 mps 754 mmHg 53%
    14:00 +37°C° 0.2 mm 2 mps 753 mmHg 58%
    15:00 +36°C° 0.2 mm 3 mps 753 mmHg 62%
    16:00 +35°C° 0.2 mm 3 mps 753 mmHg 67%
    17:00 +34°C° 0.1 mm 2 mps 753 mmHg 74%
    18:00 +31°C° 0.1 mm 2 mps 754 mmHg 81%
    19:00 +29°C° 0.1 mm 1 mps 754 mmHg 89%
    20:00 +29°C° 0 mm 1 mps 755 mmHg 91%
    21:00 +28°C° 0 mm 1 mps 755 mmHg 93%
    22:00 +28°C° 0 mm 1 mps 756 mmHg 96%
    23:00 +27°C° 0.1 mm 1 mps 756 mmHg 96%

    Day after tomorrow, 21 February, Friday

    Time Temperature Precipitation Wind Pressure Humidity
    00:00 +27°C° 0.1 mm 1 mps 755 mmHg 96%
    01:00 +27°C° 0.1 mm 1 mps 755 mmHg 96%
    02:00 +27°C° 0 mm 1 mps 755 mmHg 96%
    03:00 +27°C° 0 mm 1 mps 755 mmHg 97%
    04:00 +27°C° 0 mm 1 mps 755 mmHg 97%
    05:00 +27°C° 0.1 mm 2 mps 755 mmHg 96%
    06:00 +28°C° 0.1 mm 2 mps 755 mmHg 95%
    07:00 +28°C° 0.1 mm 2 mps 756 mmHg 94%
    08:00 +30°C° 0.2 mm 2 mps 756 mmHg 85%
    09:00 +33°C° 0.2 mm 3 mps 756 mmHg 76%
    10:00 +35°C° 0.2 mm 3 mps 756 mmHg 66%
    11:00 +35°C° 0 mm 3 mps 756 mmHg 61%
    12:00 +36°C° 0 mm 3 mps 755 mmHg 56%
    13:00 +37°C° 0 mm 3 mps 755 mmHg 50%
    14:00 +36°C° 0 mm 3 mps 754 mmHg 53%
    15:00 +36°C° 0 mm 3 mps 754 mmHg 55%
    16:00 +35°C° 0 mm 3 mps 754 mmHg 57%
    23:00 +27°C° 0 mm 2 mps 757 mmHg 96%

    22 February, Saturday

    Time Temperature Precipitation Wind Pressure Humidity
    00:00 +27°C° 0 mm 2 mps 756 mmHg 96%
    01:00 +27°C° 0 mm 2 mps 756 mmHg 96%
    02:00 +27°C° 0.1 mm 2 mps 756 mmHg 96%
    03:00 +26°C° 0.1 mm 2 mps 756 mmHg 96%
    04:00 +26°C° 0.1 mm 2 mps 755 mmHg 95%
    05:00 +27°C° 0.1 mm 2 mps 756 mmHg 95%
    06:00 +27°C° 0.1 mm 2 mps 756 mmHg 94%
    07:00 +27°C° 0.1 mm 2 mps 756 mmHg 94%
    08:00 +29°C° 0.2 mm 3 mps 756 mmHg 86%
    09:00 +31°C° 0.2 mm 3 mps 757 mmHg 78%
    10:00 +33°C° 0.2 mm 3 mps 757 mmHg 71%
    11:00 +34°C° 0.1 mm 3 mps 756 mmHg 67%
    12:00 +35°C° 0.1 mm 4 mps 756 mmHg 64%
    13:00 +36°C° 0.1 mm 4 mps 756 mmHg 60%
    14:00 +35°C° 0.5 mm 4 mps 755 mmHg 65%
    15:00 +34°C° 0.5 mm 4 mps 755 mmHg 69%
    16:00 +33°C° 0.5 mm 4 mps 754 mmHg 74%
    17:00 +31°C° 0.9 mm 3 mps 755 mmHg 81%
    18:00 +29°C° 0.9 mm 3 mps 755 mmHg 88%
    19:00 +28°C° 0.9 mm 2 mps 755 mmHg 94%
    20:00 +27°C° 0.4 mm 2 mps 756 mmHg 95%
    21:00 +27°C° 0.4 mm 2 mps 756 mmHg 95%
    22:00 +27°C° 0.4 mm 2 mps 757 mmHg 95%
    23:00 +27°C° 0.2 mm 3 mps 756 mmHg 95%

    23 February, Sunday

    Time Temperature Precipitation Wind Pressure Humidity
    00:00 +27°C° 0.2 mm 3 mps 756 mmHg 94%
    01:00 +27°C° 0.2 mm 3 mps 756 mmHg 93%
    02:00 +27°C° 0.4 mm 3 mps 755 mmHg 93%
    03:00 +27°C° 0.4 mm 3 mps 755 mmHg 93%
    04:00 +27°C° 0.4 mm 3 mps 755 mmHg 92%
    05:00 +27°C° 0.2 mm 3 mps 755 mmHg 92%
    06:00 +27°C° 0.2 mm 3 mps 756 mmHg 92%
    07:00 +27°C° 0.2 mm 3 mps 756 mmHg 92%
    08:00 +29°C° 0.2 mm 3 mps 756 mmHg 86%
    09:00 +30°C° 0.2 mm 4 mps 756 mmHg 79%
    10:00 +33°C° 0.2 mm 4 mps 756 mmHg 73%
    11:00 +33°C° 0.5 mm 4 mps 756 mmHg 71%
    12:00 +33°C° 0.5 mm 4 mps 756 mmHg 69%
    13:00 +34°C° 0.5 mm 4 mps 755 mmHg 68%
    14:00 +33°C° 0.6 mm 4 mps 755 mmHg 71%
    15:00 +32°C° 0.6 mm 4 mps 754 mmHg 74%
    16:00 +31°C° 0.6 mm 3 mps 754 mmHg 77%
    17:00 +29°C° 1.8 mm 3 mps 754 mmHg 84%
    18:00 +28°C° 1.8 mm 3 mps 755 mmHg 90%
    19:00 +27°C° 1.8 mm 2 mps 755 mmHg 96%
    20:00 +27°C° 0.6 mm 2 mps 755 mmHg 97%
    21:00 +27°C° 0.6 mm 3 mps 756 mmHg 98%
    22:00 +27°C° 0.6 mm 3 mps 756 mmHg 98%
    23:00 +27°C° 0.8 mm 3 mps 755 mmHg 98%

    24 February, Monday

    Time Temperature Precipitation Wind Pressure Humidity
    00:00 +27°C° 0.8 mm 3 mps 755 mmHg 98%
    01:00 +27°C° 0.8 mm 3 mps 754 mmHg 98%
    02:00 +27°C° 1.3 mm 3 mps 754 mmHg 99%
    03:00 +27°C° 1.3 mm 3 mps 754 mmHg 99%
    04:00 +27°C° 1.3 mm 4 mps 754 mmHg 99%
    05:00 +27°C° 3 mm 4 mps 754 mmHg 99%
    06:00 +27°C° 3 mm 4 mps 754 mmHg 99%
    07:00 +27°C° 3 mm 5 mps 754 mmHg 99%
    08:00 +27°C° 6.5 mm 5 mps 755 mmHg 99%
    09:00 +27°C° 6.5 mm 5 mps 755 mmHg 99%
    10:00 +27°C° 6.5 mm 5 mps 755 mmHg 99%
    11:00 +27°C° 13 mm 6 mps 755 mmHg 99%
    12:00 +27°C° 13 mm 6 mps 754 mmHg 99%
    13:00 +27°C° 13 mm 7 mps 754 mmHg 99%
    14:00 +27°C° 28.8 mm 7 mps 753 mmHg 99%
    15:00 +27°C° 28.8 mm 7 mps 753 mmHg 99%
    16:00 +27°C° 28.8 mm 7 mps 753 mmHg 99%
    17:00 +27°C° 44.8 mm 8 mps 753 mmHg 99%
    18:00 +27°C° 44.8 mm 8 mps 753 mmHg 99%
    19:00 +27°C° 44.8 mm 8 mps 753 mmHg 99%
    20:00 +27°C° 30.9 mm 9 mps 753 mmHg 99%
    21:00 +27°C° 30.9 mm 9 mps 753 mmHg 99%
    22:00 +27°C° 30.9 mm 9 mps 754 mmHg 99%
    23:00 +27°C° 39.9 mm 8 mps 753 mmHg 99%
    Show more